TimeEDT,TemperatureF,Dew PointF,Humidity,Sea Level PressureIn,VisibilityMPH,Wind Direction,Wind SpeedMPH,Gust SpeedMPH,PrecipitationIn,Events,Conditions,WindDirDegrees,DateUTC
12:56 AM,62.1,57.9,86,29.75,10.0,WSW,9.2,-,0.00,Rain,Light Rain,240,2013-10-20 04:56:00
1:13 AM,60.8,57.2,88,29.74,10.0,WSW,8.1,-,0.00,,Overcast,240,2013-10-20 05:13:00
1:56 AM,59.0,55.9,90,29.75,10.0,West,9.2,-,0.00,,Mostly Cloudy,270,2013-10-20 05:56:00
2:56 AM,57.0,52.0,83,29.76,10.0,West,8.1,-,N/A,,Partly Cloudy,280,2013-10-20 06:56:00
3:56 AM,54.0,48.9,83,29.78,10.0,West,6.9,-,N/A,,Clear,280,2013-10-20 07:56:00
4:56 AM,53.1,46.9,80,29.79,10.0,WNW,5.8,-,N/A,,Clear,290,2013-10-20 08:56:00
5:56 AM,50.0,45.0,83,29.81,10.0,West,4.6,-,N/A,,Clear,270,2013-10-20 09:56:00
6:56 AM,51.1,43.0,74,29.83,10.0,WNW,8.1,-,N/A,,Clear,290,2013-10-20 10:56:00
7:56 AM,52.0,39.9,63,29.87,10.0,NW,9.2,21.9,N/A,,Clear,310,2013-10-20 11:56:00
8:56 AM,55.0,39.9,57,29.91,10.0,WNW,11.5,19.6,N/A,,Clear,300,2013-10-20 12:56:00
9:56 AM,57.0,39.0,51,29.93,10.0,WNW,16.1,25.3,N/A,,Clear,290,2013-10-20 13:56:00
10:56 AM,57.9,39.9,51,29.94,10.0,NW,15.0,19.6,N/A,,Clear,310,2013-10-20 14:56:00
11:56 AM,59.0,37.0,44,29.94,10.0,WNW,11.5,-,N/A,,Clear,290,2013-10-20 15:56:00
12:56 PM,61.0,35.1,38,29.93,10.0,NW,12.7,20.7,N/A,,Clear,310,2013-10-20 16:56:00
1:56 PM,62.1,35.1,37,29.93,10.0,WNW,11.5,-,N/A,,Clear,300,2013-10-20 17:56:00
2:56 PM,62.1,35.1,37,29.94,10.0,West,13.8,19.6,N/A,,Clear,270,2013-10-20 18:56:00
3:56 PM,62.1,35.1,37,29.95,10.0,West,12.7,-,N/A,,Clear,280,2013-10-20 19:56:00
4:56 PM,61.0,34.0,36,29.96,10.0,WNW,13.8,-,N/A,,Clear,300,2013-10-20 20:56:00
5:56 PM,57.9,35.1,42,29.98,10.0,WNW,6.9,-,N/A,,Clear,290,2013-10-20 21:56:00
6:56 PM,50.0,36.0,59,30.00,10.0,Calm,Calm,-,N/A,,Clear,0,2013-10-20 22:56:00
7:56 PM,46.9,35.1,63,30.02,10.0,Calm,Calm,-,N/A,,Clear,0,2013-10-20 23:56:00
8:56 PM,45.0,35.1,68,30.04,10.0,Calm,Calm,-,N/A,,Clear,0,2013-10-21 00:56:00
9:56 PM,43.0,35.1,74,30.05,10.0,Calm,Calm,-,N/A,,Clear,0,2013-10-21 01:56:00
10:56 PM,42.1,35.1,76,30.06,10.0,Calm,Calm,-,N/A,,Clear,0,2013-10-21 02:56:00
11:56 PM,43.0,36.0,76,30.07,10.0,Calm,Calm,-,N/A,,Clear,0,2013-10-21 03:56:00